Home   Weather   Sault Ste. Marie   Past weeks

Flag for Canada Past Weather in Sault Ste. Marie, Ontario, Canada — Yesterday and Last 2 Weeks

Now
32 °F

Mostly cloudy.


Feels Like: 22 °F
Forecast: 33 / 49 °F
Wind: 14 mph from Northwest

Location: Sault Ste Marie

Current Time: Apr 23, 2017 at 10:11:54 pm

Latest Report: Apr 23, 2017 at 9:00 pm


Visibility: 15 mi

Pressure: 30.20 "Hg

Humidity: 69%

Dew Point: 23 °F

Location of Sault Ste. MarieLocation

Past Weather in Sault Ste. Marie — Graph

°F

Sault Ste. Marie Temperature Yesterday

Maximum temperature yesterday: 61 °F (at 3:00 pm)
Minimum temperature yesterday: 30 °F (at 3:00 am)
Average temperature yesterday: 45 °F

High & Low Weather Summary for the Past Weeks

 TemperatureHumidityPressure
High63 °F (Apr 9, 12:00 pm)100% (Apr 9, 9:29 pm)30.51 "Hg (Apr 9, 9:29 pm)
Low25 °F (Apr 18, 3:00 am)20% (Apr 13, 7:00 pm)29.60 "Hg (Apr 10, 7:34 am)
Average40 °F80%30.04 "Hg
* Reported Apr 8 8:00 pm — Apr 23 8:00 pm, Sault Ste. Marie, Weather by CustomWeather, © 2017

Note: Actual official high and low records may vary slightly from our data, if they occured in-between our weather recording intervals... More about our weather records

Advertising

Sault Ste. Marie Weather History for the Previous 24 Hours

Scroll right to see more
 ConditionsComfort  
Time TempWeatherWind HumidityBarometerVisibility
8:00 pm
Sun, Apr 23
32 °FPartly sunny.9 mph64%30.18 "Hg15 mi
7:00 pm36 °FBroken clouds.16 mph56%30.17 "Hg15 mi
6:00 pm36 °FScattered clouds.20 mph65%30.18 "Hg15 mi
5:00 pm36 °FBroken clouds.20 mph65%30.17 "Hg15 mi
4:00 pm36 °FBroken clouds.20 mph65%30.17 "Hg15 mi
3:00 pm36 °FPartly sunny.20 mph70%30.18 "Hg15 mi
2:00 pm37 °FBroken clouds.22 mph70%30.17 "Hg15 mi
1:00 pm36 °FPartly sunny.17 mph81%30.17 "Hg15 mi
12:11 pm34 °FMore clouds than sun.22 mph93%30.16 "Hg15 mi
12:00 pm36 °FMostly cloudy.15 mph93%30.15 "Hg15 mi
11:45 am36 °FMostly cloudy.15 mph93%30.15 "Hg10 mi
11:21 am34 °FLight rain. Mostly cloudy.20 mph100%30.15 "Hg12 mi
11:00 am36 °FLow clouds.16 mph93%30.14 "Hg12 mi
10:40 am36 °FMostly cloudy.14 mph93%30.13 "Hg12 mi
10:21 am36 °FSprinkles. Low clouds.14 mph93%30.13 "Hg10 mi
10:00 am36 °FSprinkles. Fog.13 mph93%30.12 "Hg6 mi
9:00 am39 °FLight rain. More clouds than sun.14 mph81%30.10 "Hg10 mi
8:00 am37 °FMostly cloudy.15 mph100%30.06 "Hg12 mi
7:39 am37 °FMore clouds than sun.17 mph93%30.06 "Hg10 mi
7:19 am37 °FMostly cloudy.16 mph93%30.05 "Hg7 mi
6:00 am39 °FMostly cloudy.9 mph75%30.00 "Hg15 mi
5:00 am39 °FPassing clouds.9 mph75%30.00 "Hg15 mi
4:00 am37 °FPartly cloudy.No wind70%30.00 "Hg15 mi
3:00 am39 °FPartly cloudy.7 mph61%30.01 "Hg15 mi
2:00 am37 °FPassing clouds.2 mph70%30.02 "Hg15 mi
1:00 am39 °FPassing clouds.3 mph61%30.04 "Hg15 mi
12:00 am43 °FPassing clouds.5 mph53%30.04 "Hg15 mi
11:00 pm
Sat, Apr 22
46 °FPassing clouds.6 mph43%30.07 "Hg15 mi
10:00 pm46 °FPassing clouds.2 mph50%30.09 "Hg15 mi
Weather by CustomWeather, © 2017

See weather overviewHow to use our weather pages